TimeAKST,TemperatureF,Dew PointF,Humidity,Sea Level PressureIn,VisibilityMPH,Wind Direction,Wind SpeedMPH,Gust SpeedMPH,PrecipitationIn,Events,Conditions,WindDirDegrees,DateUTC
12:56 AM,1.0,-4.0,79,29.55,10.0,South,3.5,-,N/A,,Clear,190,2013-03-01 09:56:00
1:56 AM,-0.0,-4.0,83,29.57,10.0,Calm,Calm,-,N/A,,Clear,0,2013-03-01 10:56:00
2:56 AM,1.9,-2.0,83,29.59,10.0,Calm,Calm,-,N/A,,Clear,0,2013-03-01 11:56:00
3:56 AM,3.0,-0.9,84,29.62,10.0,ESE,3.5,-,N/A,,Partly Cloudy,120,2013-03-01 12:56:00
4:56 AM,6.1,-0.0,76,29.64,10.0,Calm,Calm,-,N/A,,Partly Cloudy,0,2013-03-01 13:56:00
5:56 AM,3.9,-0.9,80,29.67,10.0,Calm,Calm,-,N/A,,Clear,0,2013-03-01 14:56:00
6:30 AM,3.2,-0.4,85,29.65,7.0,Calm,Calm,-,N/A,,Mostly Cloudy,0,2013-03-01 15:30:00
6:55 AM,3.2,-0.4,85,29.69,7.0,East,3.5,-,N/A,,Mostly Cloudy,80,2013-03-01 15:55:00
7:55 AM,5.0,-0.4,78,29.72,7.0,Calm,Calm,-,N/A,,Overcast,0,2013-03-01 16:55:00
8:55 AM,6.8,1.4,79,29.75,7.0,NNE,2.3,-,N/A,,Overcast,30,2013-03-01 17:55:00
9:20 AM,6.8,1.4,79,29.72,7.0,NE,2.3,-,N/A,Snow,Light Snow,50,2013-03-01 18:20:00
9:55 AM,8.6,1.4,73,29.77,5.0,East,3.5,-,N/A,Snow,Light Snow,80,2013-03-01 18:55:00
10:55 AM,8.6,5.0,85,29.80,3.0,East,3.5,-,N/A,Snow,Light Snow,100,2013-03-01 19:55:00
11:30 AM,8.6,5.0,85,29.78,2.0,East,2.3,-,N/A,Snow,Light Snow,90,2013-03-01 20:30:00
11:45 AM,10.4,3.2,73,29.78,1.2,ESE,3.5,-,N/A,Snow,Light Snow,120,2013-03-01 20:45:00
11:55 AM,10.4,3.2,73,29.84,1.2,SE,3.5,-,N/A,Snow,Light Snow,130,2013-03-01 20:55:00
12:55 PM,10.4,6.8,85,29.86,1.2,Calm,Calm,-,N/A,Snow,Light Snow,0,2013-03-01 21:55:00
1:12 PM,10.4,6.8,85,29.82,1.8,Calm,Calm,-,N/A,Snow,Light Snow,0,2013-03-01 22:12:00
1:25 PM,10.4,6.8,85,29.82,2.0,Calm,Calm,-,N/A,Snow,Light Snow,0,2013-03-01 22:25:00
1:45 PM,10.4,6.8,85,29.83,2.5,West,3.5,-,N/A,Snow,Light Snow,280,2013-03-01 22:45:00
1:55 PM,10.4,6.8,85,29.87,2.5,WNW,3.5,-,N/A,Snow,Light Snow,290,2013-03-01 22:55:00
2:47 PM,10.4,6.8,85,29.85,3.0,Calm,Calm,-,N/A,Snow,Light Snow,0,2013-03-01 23:47:00
2:55 PM,10.4,6.8,85,29.89,3.0,Calm,Calm,-,N/A,Snow,Light Snow,0,2013-03-01 23:55:00
3:55 PM,10.4,6.8,85,29.91,4.0,Calm,Calm,-,N/A,Snow,Light Snow,0,2013-03-02 00:55:00
4:16 PM,10.4,6.8,85,29.88,1.5,Calm,Calm,-,N/A,Snow,Light Snow,0,2013-03-02 01:16:00
4:26 PM,10.4,6.8,85,29.88,1.2,Calm,Calm,-,N/A,Snow,Light Snow,0,2013-03-02 01:26:00
4:55 PM,10.4,6.8,85,29.93,1.2,Calm,Calm,-,N/A,Snow,Light Snow,0,2013-03-02 01:55:00
5:20 PM,12.2,8.6,85,29.90,2.0,Calm,Calm,-,N/A,Snow,Light Snow,0,2013-03-02 02:20:00
5:55 PM,12.2,6.8,79,29.94,2.0,Calm,Calm,-,N/A,Snow,Light Snow,0,2013-03-02 02:55:00
6:55 PM,10.4,8.6,92,29.97,3.0,Calm,Calm,-,N/A,Snow,Light Snow,0,2013-03-02 03:55:00
7:55 PM,10.4,8.6,92,29.98,3.0,Calm,Calm,-,N/A,Snow,Light Snow,0,2013-03-02 04:55:00
8:55 PM,10.4,8.6,92,30.00,3.0,Calm,Calm,-,N/A,Snow,Light Snow,0,2013-03-02 05:55:00
10:47 PM,6.8,1.4,79,29.99,4.0,Calm,Calm,-,0.00,Snow,Light Snow,0,2013-03-02 07:47:00
10:54 PM,6.8,3.2,85,29.99,4.0,Calm,Calm,-,0.00,Snow,Light Snow,0,2013-03-02 07:54:00
10:56 PM,6.1,3.0,87,30.03,5.0,Calm,Calm,-,0.00,Snow,Light Snow,0,2013-03-02 07:56:00
11:56 PM,3.0,-0.0,87,30.04,10.0,Calm,Calm,-,0.00,,Overcast,0,2013-03-02 08:56:00